Year,Month,Day,Hour,Minute,Value (Times are PST for temperature in C)
2016,07,24,00,00,16.60
2016,07,24,00,01,16.60
2016,07,24,00,02,16.60
2016,07,24,00,03,16.60
2016,07,24,00,04,16.60
2016,07,24,00,05,16.60
2016,07,24,00,06,16.50
2016,07,24,00,07,16.50
2016,07,24,00,08,16.50
2016,07,24,00,09,16.50
2016,07,24,00,10,16.40
2016,07,24,00,11,16.40
2016,07,24,00,12,16.40
2016,07,24,00,13,16.40
2016,07,24,00,14,16.40
2016,07,24,00,15,16.30
2016,07,24,00,16,16.30
2016,07,24,00,17,16.30
2016,07,24,00,18,16.30
2016,07,24,00,19,16.30
2016,07,24,00,20,16.30
2016,07,24,00,21,16.30
2016,07,24,00,22,16.30
2016,07,24,00,23,16.30
2016,07,24,00,24,16.30
2016,07,24,00,25,16.30
2016,07,24,00,26,16.30
2016,07,24,00,27,16.30
2016,07,24,00,28,16.30
2016,07,24,00,29,16.30
2016,07,24,00,30,16.30
2016,07,24,00,31,16.30
2016,07,24,00,32,16.30
2016,07,24,00,33,16.30
2016,07,24,00,34,16.30
2016,07,24,00,35,16.30
2016,07,24,00,36,16.30
2016,07,24,00,37,16.30
2016,07,24,00,38,16.30
2016,07,24,00,39,16.30
2016,07,24,00,40,16.30
2016,07,24,00,41,16.30
2016,07,24,00,42,16.30
2016,07,24,00,43,16.30
2016,07,24,00,44,16.30
2016,07,24,00,45,16.30
2016,07,24,00,46,16.30
2016,07,24,00,47,16.30
2016,07,24,00,48,16.40
2016,07,24,00,49,16.40
2016,07,24,00,50,16.40
2016,07,24,00,51,16.40
2016,07,24,00,52,16.40
2016,07,24,00,53,16.40
2016,07,24,00,54,16.40
2016,07,24,00,55,16.40
2016,07,24,00,56,16.40
2016,07,24,00,57,16.40
2016,07,24,00,58,16.50
2016,07,24,00,59,16.50
2016,07,24,01,00,16.50
2016,07,24,01,01,16.50
2016,07,24,01,02,16.50
2016,07,24,01,03,16.50
2016,07,24,01,04,16.50
2016,07,24,01,05,16.50
2016,07,24,01,06,16.50
2016,07,24,01,07,16.50
2016,07,24,01,08,16.50
2016,07,24,01,09,16.50
2016,07,24,01,10,16.50
2016,07,24,01,11,16.50
2016,07,24,01,12,16.50
2016,07,24,01,13,16.40
2016,07,24,01,14,16.50
2016,07,24,01,15,16.40
2016,07,24,01,16,16.40
2016,07,24,01,17,16.40
2016,07,24,01,18,16.40
2016,07,24,01,19,16.40
2016,07,24,01,20,16.40
2016,07,24,01,21,16.40
2016,07,24,01,22,16.40
2016,07,24,01,23,16.40
2016,07,24,01,24,16.40
2016,07,24,01,25,16.40
2016,07,24,01,26,16.40
2016,07,24,01,27,16.30
2016,07,24,01,28,16.30
2016,07,24,01,29,16.20
2016,07,24,01,30,16.20
2016,07,24,01,31,16.10
2016,07,24,01,32,16.10
2016,07,24,01,33,16.10
2016,07,24,01,34,16.00
2016,07,24,01,35,16.00
2016,07,24,01,36,15.90
2016,07,24,01,37,15.90
2016,07,24,01,38,15.90
2016,07,24,01,39,15.90
2016,07,24,01,40,15.90
2016,07,24,01,41,15.90
2016,07,24,01,42,15.80
2016,07,24,01,43,15.80
2016,07,24,01,44,15.80
2016,07,24,01,45,15.80
2016,07,24,01,46,15.80
2016,07,24,01,47,15.80
2016,07,24,01,48,15.80
2016,07,24,01,49,15.70
2016,07,24,01,50,15.70
2016,07,24,01,51,15.70
2016,07,24,01,52,15.70
2016,07,24,01,53,15.70
2016,07,24,01,54,15.60
2016,07,24,01,55,15.60
2016,07,24,01,56,15.60
2016,07,24,01,57,15.50
2016,07,24,01,58,15.50
2016,07,24,01,59,15.50
2016,07,24,02,00,15.50
2016,07,24,02,01,15.40
2016,07,24,02,02,15.40
2016,07,24,02,03,15.40
2016,07,24,02,04,15.30
2016,07,24,02,05,15.30
2016,07,24,02,06,15.30
2016,07,24,02,07,15.30
2016,07,24,02,08,15.30
2016,07,24,02,09,15.30
2016,07,24,02,10,15.30
2016,07,24,02,11,15.30
2016,07,24,02,12,15.30
2016,07,24,02,13,15.30
2016,07,24,02,14,15.30
2016,07,24,02,15,15.30
2016,07,24,02,16,15.30
2016,07,24,02,17,15.30
2016,07,24,02,18,15.30
2016,07,24,02,19,15.30
2016,07,24,02,20,15.30
2016,07,24,02,21,15.30
2016,07,24,02,22,15.30
2016,07,24,02,23,15.30
2016,07,24,02,24,15.20
2016,07,24,02,25,15.20
2016,07,24,02,26,15.20
2016,07,24,02,27,15.20
2016,07,24,02,28,15.10
2016,07,24,02,29,15.10
2016,07,24,02,30,15.10
2016,07,24,02,31,15.10
2016,07,24,02,32,15.10
2016,07,24,02,33,15.10
2016,07,24,02,34,15.10
2016,07,24,02,35,15.20
2016,07,24,02,36,15.20
2016,07,24,02,37,15.20
2016,07,24,02,38,15.20
2016,07,24,02,39,15.20
2016,07,24,02,40,15.20
2016,07,24,02,41,15.20
2016,07,24,02,42,15.20
2016,07,24,02,43,15.20
2016,07,24,02,44,15.20
2016,07,24,02,45,15.20
2016,07,24,02,46,15.10
2016,07,24,02,47,15.10
2016,07,24,02,48,15.10
2016,07,24,02,49,15.00
2016,07,24,02,50,15.00
2016,07,24,02,51,15.00
2016,07,24,02,52,15.10
2016,07,24,02,53,15.10
2016,07,24,02,54,15.20
2016,07,24,02,55,15.20
2016,07,24,02,56,15.20
2016,07,24,02,57,15.20
2016,07,24,02,58,15.30
2016,07,24,02,59,15.30
2016,07,24,03,00,15.30
2016,07,24,03,01,15.30
2016,07,24,03,02,15.30
2016,07,24,03,03,15.30
2016,07,24,03,04,15.30
2016,07,24,03,05,15.30
2016,07,24,03,06,15.30
2016,07,24,03,07,15.30
2016,07,24,03,08,15.30
2016,07,24,03,09,15.30
2016,07,24,03,10,15.30
2016,07,24,03,11,15.20
2016,07,24,03,12,15.20
2016,07,24,03,13,15.20
2016,07,24,03,14,15.10
2016,07,24,03,15,15.10
2016,07,24,03,16,15.00
2016,07,24,03,17,15.00
2016,07,24,03,18,15.00
2016,07,24,03,19,15.00
2016,07,24,03,20,15.00
2016,07,24,03,21,15.00
2016,07,24,03,22,15.00
2016,07,24,03,23,15.00
2016,07,24,03,24,15.00
2016,07,24,03,25,15.00
2016,07,24,03,26,15.00
2016,07,24,03,27,15.00
2016,07,24,03,28,15.00
2016,07,24,03,29,15.00
2016,07,24,03,30,15.00
2016,07,24,03,31,15.00
2016,07,24,03,32,15.00
2016,07,24,03,33,15.00
2016,07,24,03,34,15.00
2016,07,24,03,35,15.00
2016,07,24,03,36,15.00
2016,07,24,03,37,15.00
2016,07,24,03,38,15.00
2016,07,24,03,39,15.00
2016,07,24,03,40,15.00
2016,07,24,03,41,15.00
2016,07,24,03,42,15.00
2016,07,24,03,43,15.00
2016,07,24,03,44,15.00
2016,07,24,03,45,15.00
2016,07,24,03,46,15.00
2016,07,24,03,47,15.00
2016,07,24,03,48,15.00
2016,07,24,03,49,15.00
2016,07,24,03,50,15.00
2016,07,24,03,51,15.00
2016,07,24,03,52,15.00
2016,07,24,03,53,15.00
2016,07,24,03,54,15.00
2016,07,24,03,55,15.00
2016,07,24,03,56,15.00
2016,07,24,03,57,15.00
2016,07,24,03,58,15.00
2016,07,24,03,59,15.00
2016,07,24,04,00,15.00
2016,07,24,04,01,15.00
2016,07,24,04,02,15.00
2016,07,24,04,03,15.00
2016,07,24,04,04,15.00
2016,07,24,04,05,15.00
2016,07,24,04,06,15.00
2016,07,24,04,07,15.00
2016,07,24,04,08,15.00
2016,07,24,04,09,15.00
2016,07,24,04,10,15.00
2016,07,24,04,11,14.90
2016,07,24,04,12,14.80
2016,07,24,04,13,14.80
2016,07,24,04,14,14.70
2016,07,24,04,15,14.60
2016,07,24,04,16,14.60
2016,07,24,04,17,14.60
2016,07,24,04,18,14.50
2016,07,24,04,19,14.50
2016,07,24,04,20,14.40
2016,07,24,04,21,14.40
2016,07,24,04,22,14.40
2016,07,24,04,23,14.30
2016,07,24,04,24,14.30
2016,07,24,04,25,14.30
2016,07,24,04,26,14.30
2016,07,24,04,27,14.30
2016,07,24,04,28,14.30
2016,07,24,04,29,14.30
2016,07,24,04,30,14.30
2016,07,24,04,31,14.30
2016,07,24,04,32,14.30
2016,07,24,04,33,14.30
2016,07,24,04,34,14.30
2016,07,24,04,35,14.30
2016,07,24,04,36,14.30
2016,07,24,04,37,14.30
2016,07,24,04,38,14.30
2016,07,24,04,39,14.30
2016,07,24,04,40,14.30
2016,07,24,04,41,14.30
2016,07,24,04,42,14.30
2016,07,24,04,43,14.30
2016,07,24,04,44,14.30
2016,07,24,04,45,14.30
2016,07,24,04,46,14.30
2016,07,24,04,47,14.30
2016,07,24,04,48,14.20
2016,07,24,04,49,14.20
2016,07,24,04,50,14.20
2016,07,24,04,51,14.20
2016,07,24,04,52,14.20
2016,07,24,04,53,14.20
2016,07,24,04,54,14.10
2016,07,24,04,55,14.10
2016,07,24,04,56,14.10
2016,07,24,04,57,14.10
2016,07,24,04,58,14.10
2016,07,24,04,59,14.10
2016,07,24,05,00,14.10
2016,07,24,05,01,14.10
2016,07,24,05,02,14.10
2016,07,24,05,03,14.10
2016,07,24,05,04,14.10
2016,07,24,05,05,14.10
2016,07,24,05,06,14.10
2016,07,24,05,07,14.20
2016,07,24,05,08,14.20
2016,07,24,05,09,14.20
2016,07,24,05,10,14.20
2016,07,24,05,11,14.20
2016,07,24,05,12,14.20
2016,07,24,05,13,14.20
2016,07,24,05,14,14.20
2016,07,24,05,15,14.20
2016,07,24,05,16,14.20
2016,07,24,05,17,14.20
2016,07,24,05,18,14.20
2016,07,24,05,19,14.30
2016,07,24,05,20,14.30
2016,07,24,05,21,14.30
2016,07,24,05,22,14.30
2016,07,24,05,23,14.30
2016,07,24,05,24,14.30
2016,07,24,05,25,14.40
2016,07,24,05,26,14.40
2016,07,24,05,27,14.40
2016,07,24,05,28,14.40
2016,07,24,05,29,14.40
2016,07,24,05,30,14.50
2016,07,24,05,31,14.50
2016,07,24,05,32,14.60
2016,07,24,05,33,14.60
2016,07,24,05,34,14.60
2016,07,24,05,35,14.60
2016,07,24,05,36,14.60
2016,07,24,05,37,14.60
2016,07,24,05,38,14.60
2016,07,24,05,39,14.50
2016,07,24,05,40,14.50
2016,07,24,05,41,14.40
2016,07,24,05,42,14.40
2016,07,24,05,43,14.30
2016,07,24,05,44,14.30
2016,07,24,05,45,14.20
2016,07,24,05,46,14.20
2016,07,24,05,47,14.20
2016,07,24,05,48,14.10
2016,07,24,05,49,14.10
2016,07,24,05,50,14.00
2016,07,24,05,51,14.00
2016,07,24,05,52,13.90
2016,07,24,05,53,13.90
2016,07,24,05,54,13.90
2016,07,24,05,55,13.90
2016,07,24,05,56,13.80
2016,07,24,05,57,13.80
2016,07,24,05,58,13.80
2016,07,24,05,59,13.80
2016,07,24,06,00,13.80
2016,07,24,06,01,13.80
2016,07,24,06,02,13.80
2016,07,24,06,03,13.80
2016,07,24,06,04,13.80
2016,07,24,06,05,13.90
2016,07,24,06,06,13.90
2016,07,24,06,07,13.90
2016,07,24,06,08,13.90
2016,07,24,06,09,13.90
2016,07,24,06,10,13.90
2016,07,24,06,11,13.90
2016,07,24,06,12,14.00
2016,07,24,06,13,14.00
2016,07,24,06,14,14.10
2016,07,24,06,15,14.20
2016,07,24,06,16,14.20
2016,07,24,06,17,14.30
2016,07,24,06,18,14.40
2016,07,24,06,19,14.50
2016,07,24,06,20,14.60
2016,07,24,06,21,14.60
2016,07,24,06,22,14.70
2016,07,24,06,23,14.80
2016,07,24,06,24,15.00
2016,07,24,06,25,15.00
2016,07,24,06,26,15.00
2016,07,24,06,27,15.20
2016,07,24,06,28,15.30
2016,07,24,06,29,15.40
2016,07,24,06,30,15.50
2016,07,24,06,31,15.60
2016,07,24,06,32,15.60
2016,07,24,06,33,15.70
2016,07,24,06,34,15.80
2016,07,24,06,35,15.90
2016,07,24,06,36,16.00
2016,07,24,06,37,16.10
2016,07,24,06,38,16.10
2016,07,24,06,39,16.20
2016,07,24,06,40,16.30
2016,07,24,06,41,16.30
2016,07,24,06,42,16.40
2016,07,24,06,43,16.50
2016,07,24,06,44,16.50
2016,07,24,06,45,16.60
2016,07,24,06,46,16.70
2016,07,24,06,47,16.70
2016,07,24,06,48,16.70
2016,07,24,06,49,16.80
2016,07,24,06,50,16.80
2016,07,24,06,51,16.80
2016,07,24,06,52,16.80
2016,07,24,06,53,16.80
2016,07,24,06,54,16.80
2016,07,24,06,55,16.80
2016,07,24,06,56,16.80
2016,07,24,06,57,16.90
2016,07,24,06,58,16.90
2016,07,24,06,59,16.90
2016,07,24,07,00,16.90
2016,07,24,07,01,16.90
2016,07,24,07,02,17.00
2016,07,24,07,03,17.00
2016,07,24,07,04,17.00
2016,07,24,07,05,17.00
2016,07,24,07,06,17.00
2016,07,24,07,07,17.10
2016,07,24,07,08,17.10
2016,07,24,07,09,17.10
2016,07,24,07,10,17.10
2016,07,24,07,11,17.20
2016,07,24,07,12,17.20
2016,07,24,07,13,17.20
2016,07,24,07,14,17.20
2016,07,24,07,15,17.20
2016,07,24,07,16,17.20
2016,07,24,07,17,17.30
2016,07,24,07,18,17.30
2016,07,24,07,19,17.30
2016,07,24,07,20,17.30
2016,07,24,07,21,17.40
2016,07,24,07,22,17.40
2016,07,24,07,23,17.50
2016,07,24,07,24,17.50
2016,07,24,07,25,17.60
2016,07,24,07,26,17.60
2016,07,24,07,27,17.60
2016,07,24,07,28,17.70
2016,07,24,07,29,17.70
2016,07,24,07,30,17.70
2016,07,24,07,31,17.80
2016,07,24,07,32,17.80
2016,07,24,07,33,17.80
2016,07,24,07,34,17.80
2016,07,24,07,35,17.80
2016,07,24,07,36,17.80
2016,07,24,07,37,17.90
2016,07,24,07,38,17.90
2016,07,24,07,39,17.90
2016,07,24,07,40,17.90
2016,07,24,07,41,18.00
2016,07,24,07,42,18.00
2016,07,24,07,43,18.10
2016,07,24,07,44,18.10
2016,07,24,07,45,18.10
2016,07,24,07,46,18.10
2016,07,24,07,47,18.20
2016,07,24,07,48,18.20
2016,07,24,07,49,18.20
2016,07,24,07,50,18.20
2016,07,24,07,51,18.20
2016,07,24,07,52,18.20
2016,07,24,07,53,18.20
2016,07,24,07,54,18.20
2016,07,24,07,55,18.30
2016,07,24,07,56,18.30
2016,07,24,07,57,18.30
2016,07,24,07,58,18.30
2016,07,24,07,59,18.30
2016,07,24,08,00,18.40
2016,07,24,08,01,18.40
2016,07,24,08,02,18.50
2016,07,24,08,03,18.50
2016,07,24,08,04,18.50
2016,07,24,08,05,18.60
2016,07,24,08,06,18.60
2016,07,24,08,07,18.60
2016,07,24,08,08,18.70
2016,07,24,08,09,18.70
2016,07,24,08,10,18.70
2016,07,24,08,11,18.60
2016,07,24,08,12,18.70
2016,07,24,08,13,18.60
2016,07,24,08,14,18.70
2016,07,24,08,15,18.70
2016,07,24,08,16,18.70
2016,07,24,08,17,18.70
2016,07,24,08,18,18.70
2016,07,24,08,19,18.70
2016,07,24,08,20,18.70
2016,07,24,08,21,18.70
2016,07,24,08,22,18.70
2016,07,24,08,23,18.70
2016,07,24,08,24,18.70
2016,07,24,08,25,18.70
2016,07,24,08,26,18.70
2016,07,24,08,27,18.80
2016,07,24,08,28,18.80
2016,07,24,08,29,18.80
2016,07,24,08,30,18.80
2016,07,24,08,31,18.80
2016,07,24,08,32,18.80
2016,07,24,08,33,18.90
2016,07,24,08,34,18.90
2016,07,24,08,35,18.90
2016,07,24,08,36,18.90
2016,07,24,08,37,18.90
2016,07,24,08,38,19.00
2016,07,24,08,39,19.00
2016,07,24,08,40,19.00
2016,07,24,08,41,19.00
2016,07,24,08,42,19.00
2016,07,24,08,43,19.10
2016,07,24,08,44,19.20
2016,07,24,08,45,19.30
2016,07,24,08,46,19.40
2016,07,24,08,47,19.50
2016,07,24,08,48,19.60
2016,07,24,08,49,19.60
2016,07,24,08,50,19.70
2016,07,24,08,51,19.70
2016,07,24,08,52,19.70
2016,07,24,08,53,19.70
2016,07,24,08,54,19.60
2016,07,24,08,55,19.60
2016,07,24,08,56,19.70
2016,07,24,08,57,19.70
2016,07,24,08,58,19.80
2016,07,24,08,59,19.80
2016,07,24,09,00,19.80
2016,07,24,09,01,19.80
2016,07,24,09,02,19.80
2016,07,24,09,03,19.80
2016,07,24,09,04,19.80
2016,07,24,09,05,19.80
2016,07,24,09,06,19.80
2016,07,24,09,07,19.80
2016,07,24,09,08,19.80
2016,07,24,09,09,19.90
2016,07,24,09,10,19.90
2016,07,24,09,11,20.00
2016,07,24,09,12,19.90
2016,07,24,09,13,19.80
2016,07,24,09,14,19.80
2016,07,24,09,15,19.80
2016,07,24,09,16,19.80
2016,07,24,09,17,19.80
2016,07,24,09,18,19.70
2016,07,24,09,19,19.60
2016,07,24,09,20,19.60
2016,07,24,09,21,19.50
2016,07,24,09,22,19.50
2016,07,24,09,23,19.60
2016,07,24,09,24,19.60
2016,07,24,09,25,19.70
2016,07,24,09,26,19.80
2016,07,24,09,27,19.90
2016,07,24,09,28,19.90
2016,07,24,09,29,19.90
2016,07,24,09,30,20.00
2016,07,24,09,31,20.00
2016,07,24,09,32,20.10
2016,07,24,09,33,20.10
2016,07,24,09,34,20.10
2016,07,24,09,35,20.20
2016,07,24,09,36,20.20
2016,07,24,09,37,20.30
2016,07,24,09,38,20.40
2016,07,24,09,39,20.40
2016,07,24,09,40,20.50
2016,07,24,09,41,20.50
2016,07,24,09,42,20.40
2016,07,24,09,43,20.40
2016,07,24,09,44,20.50
2016,07,24,09,45,20.50
2016,07,24,09,46,20.50
2016,07,24,09,47,20.60
2016,07,24,09,48,20.60
2016,07,24,09,49,20.60
2016,07,24,09,50,20.60
2016,07,24,09,51,20.60
2016,07,24,09,52,20.60
2016,07,24,09,53,20.70
2016,07,24,09,54,20.80
2016,07,24,09,55,20.90
2016,07,24,09,56,21.00
2016,07,24,09,57,21.00
2016,07,24,09,58,21.00
2016,07,24,09,59,21.00
2016,07,24,10,00,20.90
2016,07,24,10,01,20.90
2016,07,24,10,02,21.00
2016,07,24,10,03,21.10
2016,07,24,10,04,21.10
2016,07,24,10,05,21.10
2016,07,24,10,06,21.00
2016,07,24,10,07,21.00
2016,07,24,10,08,20.90
2016,07,24,10,09,20.80
2016,07,24,10,10,20.70
2016,07,24,10,11,20.70
2016,07,24,10,12,20.60
2016,07,24,10,13,20.50
2016,07,24,10,14,20.40
2016,07,24,10,15,20.30
2016,07,24,10,16,20.30
2016,07,24,10,17,20.20
2016,07,24,10,18,20.30
2016,07,24,10,19,20.30
2016,07,24,10,20,20.40
2016,07,24,10,21,20.50
2016,07,24,10,22,20.60
2016,07,24,10,23,20.60
2016,07,24,10,24,20.70
2016,07,24,10,25,20.70
2016,07,24,10,26,20.80
2016,07,24,10,27,20.80
2016,07,24,10,28,20.80
2016,07,24,10,29,20.70
2016,07,24,10,30,20.70
2016,07,24,10,31,20.60
2016,07,24,10,32,20.60
2016,07,24,10,33,20.60
2016,07,24,10,34,20.60
2016,07,24,10,35,20.60
2016,07,24,10,36,20.60
2016,07,24,10,37,20.50
2016,07,24,10,38,20.50
2016,07,24,10,39,20.40
2016,07,24,10,40,20.40
2016,07,24,10,41,20.30
2016,07,24,10,42,20.30
2016,07,24,10,43,20.20
2016,07,24,10,44,20.20
2016,07,24,10,45,20.20
2016,07,24,10,46,20.20
2016,07,24,10,47,20.20
2016,07,24,10,48,20.10
2016,07,24,10,49,20.10
2016,07,24,10,50,20.00
2016,07,24,10,51,20.10
2016,07,24,10,52,20.20
2016,07,24,10,53,20.30
2016,07,24,10,54,20.40
2016,07,24,10,55,20.40
2016,07,24,10,56,20.40
2016,07,24,10,57,20.30
2016,07,24,10,58,20.30
2016,07,24,10,59,20.20
2016,07,24,11,00,20.20
2016,07,24,11,01,20.20
2016,07,24,11,02,20.20
2016,07,24,11,03,20.20
2016,07,24,11,04,20.20
2016,07,24,11,05,20.20
2016,07,24,11,06,20.10
2016,07,24,11,07,20.10
2016,07,24,11,08,20.10
2016,07,24,11,09,20.00
2016,07,24,11,10,20.00
2016,07,24,11,11,20.00
2016,07,24,11,12,20.10
2016,07,24,11,13,20.20
2016,07,24,11,14,20.30
2016,07,24,11,15,20.20
2016,07,24,11,16,20.20
2016,07,24,11,17,20.10
2016,07,24,11,18,20.10
2016,07,24,11,19,20.20
2016,07,24,11,20,20.20
2016,07,24,11,21,20.30
2016,07,24,11,22,20.40
2016,07,24,11,23,20.50
2016,07,24,11,24,20.50
2016,07,24,11,25,20.60
2016,07,24,11,26,20.70
2016,07,24,11,27,20.70
2016,07,24,11,28,20.60
2016,07,24,11,29,20.60
2016,07,24,11,30,20.70
2016,07,24,11,31,20.70
2016,07,24,11,32,20.80
2016,07,24,11,33,20.80
2016,07,24,11,34,20.90
2016,07,24,11,35,20.90
2016,07,24,11,36,20.90
2016,07,24,11,37,20.80
2016,07,24,11,38,20.70
2016,07,24,11,39,20.50
2016,07,24,11,40,20.40
2016,07,24,11,41,20.30
2016,07,24,11,42,20.30
2016,07,24,11,43,20.30
2016,07,24,11,44,20.30
2016,07,24,11,45,20.30
2016,07,24,11,46,20.30
2016,07,24,11,47,20.40
2016,07,24,11,48,20.60
2016,07,24,11,49,20.70
2016,07,24,11,50,20.80
2016,07,24,11,51,20.90
2016,07,24,11,52,20.90
2016,07,24,11,53,20.90
2016,07,24,11,54,20.90
2016,07,24,11,55,20.90
2016,07,24,11,56,20.90
2016,07,24,11,57,21.00
2016,07,24,11,58,21.10
2016,07,24,11,59,21.20
2016,07,24,12,00,21.20
2016,07,24,12,01,21.30
2016,07,24,12,02,21.50
2016,07,24,12,03,21.60
2016,07,24,12,04,21.70
2016,07,24,12,05,21.70
2016,07,24,12,06,21.70
2016,07,24,12,07,21.60
2016,07,24,12,08,21.50
2016,07,24,12,09,21.40
2016,07,24,12,10,21.30
2016,07,24,12,11,21.30
2016,07,24,12,12,21.20
2016,07,24,12,13,21.20
2016,07,24,12,14,21.20
2016,07,24,12,15,21.20
2016,07,24,12,16,21.20
2016,07,24,12,17,21.30
2016,07,24,12,18,21.30
2016,07,24,12,19,21.40
2016,07,24,12,20,21.40
2016,07,24,12,21,21.40
2016,07,24,12,22,21.50
2016,07,24,12,23,21.60
2016,07,24,12,24,21.60
2016,07,24,12,25,21.70
2016,07,24,12,26,21.80
2016,07,24,12,27,22.00
2016,07,24,12,28,22.10
2016,07,24,12,29,22.20
2016,07,24,12,30,22.30
2016,07,24,12,31,22.30
2016,07,24,12,32,22.30
2016,07,24,12,33,22.20
2016,07,24,12,34,22.20
2016,07,24,12,35,22.20
2016,07,24,12,36,22.20
2016,07,24,12,37,22.20
2016,07,24,12,38,22.20
2016,07,24,12,39,22.20
2016,07,24,12,40,22.10
2016,07,24,12,41,22.00
2016,07,24,12,42,21.90
2016,07,24,12,43,21.80
2016,07,24,12,44,21.80
2016,07,24,12,45,21.80
2016,07,24,12,46,21.90
2016,07,24,12,47,22.00
2016,07,24,12,48,22.10
2016,07,24,12,49,22.20
2016,07,24,12,50,22.20
2016,07,24,12,51,22.20
2016,07,24,12,52,22.20
2016,07,24,12,53,22.20
2016,07,24,12,54,22.20
2016,07,24,12,55,22.30
2016,07,24,12,56,22.20
2016,07,24,12,57,22.30
2016,07,24,12,58,22.30
2016,07,24,12,59,22.40
2016,07,24,13,00,22.40
2016,07,24,13,01,22.40
2016,07,24,13,02,22.40
2016,07,24,13,03,22.40
2016,07,24,13,04,22.40
2016,07,24,13,05,22.40
2016,07,24,13,06,22.50
2016,07,24,13,07,22.50
2016,07,24,13,08,22.60
2016,07,24,13,09,22.60
2016,07,24,13,10,22.50
2016,07,24,13,11,22.40
2016,07,24,13,12,22.40
2016,07,24,13,13,22.50
2016,07,24,13,14,22.50
2016,07,24,13,15,22.50
2016,07,24,13,16,22.50
2016,07,24,13,17,22.50
2016,07,24,13,18,22.50
2016,07,24,13,19,22.40
2016,07,24,13,20,22.30
2016,07,24,13,21,22.10
2016,07,24,13,22,22.00
2016,07,24,13,23,22.00
2016,07,24,13,24,21.90
2016,07,24,13,25,21.90
2016,07,24,13,26,22.00
2016,07,24,13,27,22.10
2016,07,24,13,28,22.10
2016,07,24,13,29,22.10
2016,07,24,13,30,22.20
2016,07,24,13,31,22.20
2016,07,24,13,32,22.30
2016,07,24,13,33,22.30
2016,07,24,13,34,22.30
2016,07,24,13,35,22.40
2016,07,24,13,36,22.50
2016,07,24,13,37,22.60
2016,07,24,13,38,22.70
2016,07,24,13,39,22.70
2016,07,24,13,40,22.70
2016,07,24,13,41,22.80
2016,07,24,13,42,22.80
2016,07,24,13,43,22.80
2016,07,24,13,44,22.80
2016,07,24,13,45,22.60
2016,07,24,13,46,22.60
2016,07,24,13,47,22.60
2016,07,24,13,48,22.60
2016,07,24,13,49,22.60
2016,07,24,13,50,22.60
2016,07,24,13,51,22.70
2016,07,24,13,52,22.70
2016,07,24,13,53,22.70
2016,07,24,13,54,22.70
2016,07,24,13,55,22.70
2016,07,24,13,56,22.70
2016,07,24,13,57,22.70
2016,07,24,13,58,22.80
2016,07,24,13,59,22.90
2016,07,24,14,00,22.90
2016,07,24,14,01,22.90
2016,07,24,14,02,22.90
2016,07,24,14,03,22.90
2016,07,24,14,04,22.90
2016,07,24,14,05,22.90
2016,07,24,14,06,22.90
2016,07,24,14,07,22.80
2016,07,24,14,08,22.80
2016,07,24,14,09,22.80
2016,07,24,14,10,22.90
2016,07,24,14,11,23.00
2016,07,24,14,12,23.10
2016,07,24,14,13,23.10
2016,07,24,14,14,23.00
2016,07,24,14,15,22.90
2016,07,24,14,16,22.80
2016,07,24,14,17,22.80
2016,07,24,14,18,22.80
2016,07,24,14,19,22.80
2016,07,24,14,20,22.90
2016,07,24,14,21,23.00
2016,07,24,14,22,23.00
2016,07,24,14,23,23.00
2016,07,24,14,24,22.90
2016,07,24,14,25,22.80
2016,07,24,14,26,22.60
2016,07,24,14,27,22.40
2016,07,24,14,28,22.30
2016,07,24,14,29,22.40
2016,07,24,14,30,22.40
2016,07,24,14,31,22.40
2016,07,24,14,32,22.40
2016,07,24,14,33,22.50
2016,07,24,14,34,22.50
2016,07,24,14,35,22.50
2016,07,24,14,36,22.40
2016,07,24,14,37,22.40
2016,07,24,14,38,22.50
2016,07,24,14,39,22.60
2016,07,24,14,40,22.60
2016,07,24,14,41,22.70
2016,07,24,14,42,22.70
2016,07,24,14,43,22.80
2016,07,24,14,44,22.80
2016,07,24,14,45,22.80
2016,07,24,14,46,22.70
2016,07,24,14,47,22.70
2016,07,24,14,48,22.70
2016,07,24,14,49,22.60
2016,07,24,14,50,22.70
2016,07,24,14,51,22.80
2016,07,24,14,52,22.90
2016,07,24,14,53,23.00
2016,07,24,14,54,23.00
2016,07,24,14,55,23.00
2016,07,24,14,56,23.10
2016,07,24,14,57,23.10
2016,07,24,14,58,23.20
2016,07,24,14,59,23.20
2016,07,24,15,00,23.20
2016,07,24,15,01,23.30
2016,07,24,15,02,23.30
2016,07,24,15,03,23.30
2016,07,24,15,04,23.30
2016,07,24,15,05,23.20
2016,07,24,15,06,23.20
2016,07,24,15,07,23.20
2016,07,24,15,08,23.20
2016,07,24,15,09,23.20
2016,07,24,15,10,23.20
2016,07,24,15,11,23.20
2016,07,24,15,12,23.20
2016,07,24,15,13,23.20
2016,07,24,15,14,23.20
2016,07,24,15,15,23.20
2016,07,24,15,16,23.20
2016,07,24,15,17,23.20
2016,07,24,15,18,23.30
2016,07,24,15,19,23.30
2016,07,24,15,20,23.40
2016,07,24,15,21,23.50
2016,07,24,15,22,23.70
2016,07,24,15,23,23.80
2016,07,24,15,24,24.00
2016,07,24,15,25,24.10
2016,07,24,15,26,24.10
2016,07,24,15,27,24.10
2016,07,24,15,28,24.10
2016,07,24,15,29,24.10
2016,07,24,15,30,24.20
2016,07,24,15,31,24.20
2016,07,24,15,32,24.20
2016,07,24,15,33,24.20
2016,07,24,15,34,24.30
2016,07,24,15,35,24.40
2016,07,24,15,36,24.50
2016,07,24,15,37,24.60
2016,07,24,15,38,24.60
2016,07,24,15,39,24.60
2016,07,24,15,40,24.60
2016,07,24,15,41,24.60
2016,07,24,15,42,24.60
2016,07,24,15,43,24.70
2016,07,24,15,44,24.80
2016,07,24,15,45,24.80
2016,07,24,15,46,24.80
2016,07,24,15,47,24.70
2016,07,24,15,48,24.70
2016,07,24,15,49,24.70
2016,07,24,15,50,24.60
2016,07,24,15,51,24.50
2016,07,24,15,52,24.50
2016,07,24,15,53,24.50
2016,07,24,15,54,24.40
2016,07,24,15,55,24.40
2016,07,24,15,56,24.30
2016,07,24,15,57,24.40
2016,07,24,15,58,24.40
2016,07,24,15,59,24.50
2016,07,24,16,00,24.60
2016,07,24,16,01,24.70
2016,07,24,16,02,24.80
2016,07,24,16,03,24.90
2016,07,24,16,04,25.00
2016,07,24,16,05,25.00
2016,07,24,16,06,25.00
2016,07,24,16,07,25.10
2016,07,24,16,08,25.10
2016,07,24,16,09,25.10
2016,07,24,16,10,25.10
2016,07,24,16,11,25.10
2016,07,24,16,12,25.00
2016,07,24,16,13,25.00
2016,07,24,16,14,25.00
2016,07,24,16,15,24.90
2016,07,24,16,16,24.90
2016,07,24,16,17,25.00
2016,07,24,16,18,25.10
2016,07,24,16,19,25.10
2016,07,24,16,20,25.20
2016,07,24,16,21,25.20
2016,07,24,16,22,25.10
2016,07,24,16,23,25.00
2016,07,24,16,24,24.90
2016,07,24,16,25,24.90
2016,07,24,16,26,24.90
2016,07,24,16,27,24.90
2016,07,24,16,28,24.90
2016,07,24,16,29,24.90
2016,07,24,16,30,25.00
2016,07,24,16,31,25.00
2016,07,24,16,32,25.10
2016,07,24,16,33,25.10
2016,07,24,16,34,25.10
2016,07,24,16,35,25.10
2016,07,24,16,36,25.10
2016,07,24,16,37,25.10
2016,07,24,16,38,25.10
2016,07,24,16,39,25.10
2016,07,24,16,40,25.10
2016,07,24,16,41,25.20
2016,07,24,16,42,25.20
2016,07,24,16,43,25.10
2016,07,24,16,44,25.20
2016,07,24,16,45,25.20
2016,07,24,16,46,25.30
2016,07,24,16,47,25.30
2016,07,24,16,48,25.30
2016,07,24,16,49,25.30
2016,07,24,16,50,25.30
2016,07,24,16,51,25.20
2016,07,24,16,52,25.10
2016,07,24,16,53,25.10
2016,07,24,16,54,25.10
2016,07,24,16,55,25.00
2016,07,24,16,56,25.00
2016,07,24,16,57,25.10
2016,07,24,16,58,25.10
2016,07,24,16,59,25.10
2016,07,24,17,00,25.20
2016,07,24,17,01,25.20
2016,07,24,17,02,25.30
2016,07,24,17,03,25.30
2016,07,24,17,04,25.30
2016,07,24,17,05,25.30
2016,07,24,17,06,25.30
2016,07,24,17,07,25.30
2016,07,24,17,08,25.30
2016,07,24,17,09,25.30
2016,07,24,17,10,25.20
2016,07,24,17,11,25.20
2016,07,24,17,12,25.10
2016,07,24,17,13,25.10
2016,07,24,17,14,25.10
2016,07,24,17,15,25.10
2016,07,24,17,16,25.10
2016,07,24,17,17,25.10
2016,07,24,17,18,25.10
2016,07,24,17,19,25.00